#datint,netname,site,siteID,timestamp,IntT,BattV,AirT2,AirT,AirT_Avg,AirT_Max,AirT_Min,RH_Avg,RH_Max,RH_Min,EA_Avg,Td_Avg,Td_Max,Td_Min,WindS_Smp,WindS_Avg,WindD_Avg,WindD_SD,WindS_Max,ETo,ETr,SoilT4,SoilT8,SoilVWC8,SolarW_Avg,wetstate_Avg,wetT_Avg,Precip_accum,Precip_WPG,Precip_TB
15min,AgWx,beryljct,423,27MAY2021:01:00:00,47.9,12.86,46.9,45.9,45.1,46.4,43.7,42,49,32,0.337,23.3,26.1,17.6,2.192,1.9,115,23,4.0,-0.00000,0.00002,58.7,59.7,10,0,0,.,8.89,0.00,0.00
15min,AgWx,beryljct,423,27MAY2021:01:15:00,47.1,12.86,46.1,44.5,43.9,47.6,40.3,43,62,30,0.341,22.0,28.5,17.0,1.008,0.4,106,10,2.2,-0.00019,-0.00028,58.4,59.7,10,0,0,.,8.89,0.00,0.00
15min,AgWx,beryljct,423,27MAY2021:01:30:00,46.3,12.84,39.0,38.4,41.9,44.8,38.3,44,49,34,0.351,21.3,24.7,18.1,4.669,3.5,348,29,8.3,0.00012,0.00018,58.1,59.6,10,0,0,.,8.90,0.00,0.00
15min,AgWx,beryljct,423,27MAY2021:01:45:00,45.4,12.83,47.0,43.9,41.7,43.9,38.5,42,47,38,0.383,20.4,23.3,18.0,2.192,4.5,284,18,6.1,0.00019,0.00026,57.8,59.6,10,0,0,.,8.90,0.00,0.00
15min,AgWx,beryljct,423,27MAY2021:02:00:00,45.0,12.84,48.1,48.8,45.7,49.1,44.0,34,39,27,0.341,18.6,20.6,16.9,3.858,2.5,296,35,4.7,0.00009,0.00016,57.6,59.5,10,0,0,.,8.90,0.00,0.00
15min,AgWx,beryljct,423,27MAY2021:02:15:00,45.2,12.83,44.1,44.6,45.9,48.7,44.6,38,41,30,0.410,21.3,22.4,18.4,2.477,2.5,213,39,6.3,0.00008,0.00014,57.3,59.4,10,0,0,.,8.90,0.00,0.00
15min,AgWx,beryljct,423,27MAY2021:02:30:00,45.2,12.82,47.3,49.0,46.4,49.1,43.6,36,44,29,0.364,20.6,23.1,18.1,0.329,1.8,198,38,3.2,0.00001,0.00005,57.0,59.4,10,0,0,.,8.90,0.00,0.00
15min,AgWx,beryljct,423,27MAY2021:02:45:00,45.5,12.8,51.3,50.1,49.6,51.0,48.0,31,34,28,0.352,20.0,21.5,18.6,1.337,2.1,190,41,4.8,0.00006,0.00013,56.8,59.3,10,0,0,.,8.90,0.00,0.00
15min,AgWx,beryljct,423,27MAY2021:03:00:00,45.7,12.81,43.7,45.4,47.8,50.6,45.4,36,42,28,0.436,21.9,23.8,18.7,0,0.5,196,10,1.3,-0.00018,-0.00026,56.6,59.2,10,0,0,.,8.90,0.00,0.00
15min,AgWx,beryljct,423,27MAY2021:03:15:00,45.2,12.8,45.5,45.4,43.9,45.4,41.7,46,52,39,0.403,24.2,25.7,21.9,0.592,1.3,195,20,2.6,-0.00007,-0.00008,56.4,59.1,10,0,0,.,8.90,0.00,0.00
15min,AgWx,beryljct,423,27MAY2021:03:30:00,44.9,12.79,49.8,47.5,47.0,50.4,43.9,37,44,30,0.417,21.9,23.5,20.4,0.833,1.6,203,22,2.9,-0.00002,0.00000,56.1,59.1,10,0,0,.,8.90,0.00,0.00
15min,AgWx,beryljct,423,27MAY2021:03:45:00,44.6,12.77,47.9,50.2,48.1,50.2,46.2,36,40,31,0.381,22.2,23.5,20.5,0,1.0,179,20,2.4,-0.00010,-0.00012,55.9,59.0,10,0,0,.,8.90,0.00,0.00
15min,AgWx,beryljct,423,27MAY2021:04:00:00,44.1,12.76,40.1,40.3,43.3,50.2,40.2,40,45,31,0.351,20.6,23.8,18.1,2.346,2.4,338,30,3.2,0.00006,0.00011,55.7,58.9,10,0,0,.,8.90,0.00,0.00
15min,AgWx,beryljct,423,27MAY2021:04:15:00,43.1,12.76,44.3,41.3,39.4,41.7,38.4,46,50,41,0.380,20.2,21.6,18.6,0,1.1,329,42,3.6,-0.00009,-0.00011,55.4,58.8,10,0,0,.,8.90,0.00,0.00
15min,AgWx,beryljct,423,27MAY2021:04:30:00,42.2,12.76,40.6,39.7,40.4,42.1,39.6,50,56,42,0.469,23.1,25.5,20.4,0,0.2,202,15,1.1,-0.00021,-0.00032,55.2,58.7,10,0,0,.,8.90,0.00,0.00
15min,AgWx,beryljct,423,27MAY2021:04:45:00,41.3,12.74,37.8,37.2,38.3,39.9,37.0,60,65,56,0.481,25.5,26.2,24.7,0.241,0.9,331,49,2.6,-0.00012,-0.00016,55.0,58.6,10,0,0,.,8.90,0.00,0.00
15min,AgWx,beryljct,423,27MAY2021:05:00:00,40.4,12.74,35.7,34.8,37.2,38.3,34.8,64,73,57,0.496,25.9,26.9,24.6,2.083,1.5,119,26,3.4,-0.00008,-0.00009,54.8,58.5,10,0,0,.,8.91,0.00,0.00
15min,AgWx,beryljct,423,27MAY2021:05:15:00,39.5,12.74,31.7,32.8,34.7,37.5,32.8,63,75,51,0.356,23.1,26.8,18.3,1.688,2.4,12,44,4.4,-0.00002,-0.00001,54.6,58.4,10,0,0,.,8.91,0.00,0.00
15min,AgWx,beryljct,423,27MAY2021:05:30:00,38.5,12.72,32.7,35.4,34.0,36.7,32.3,44,59,40,0.303,14.3,19.5,11.7,1.425,2.5,340,8.5,3.6,0.00025,0.00044,54.4,58.3,10,0,0,.,8.91,0.00,0.00
15min,AgWx,beryljct,423,27MAY2021:05:45:00,37.8,12.71,32.6,33.1,33.4,35.0,33.0,53,59,45,0.336,17.9,20.3,15.7,0,0.6,321,29,2.0,0.00006,0.00011,54.2,58.2,10,0,0,.,8.91,0.00,0.00
15min,AgWx,beryljct,423,27MAY2021:06:00:00,37.2,12.71,33.4,34.8,34.5,35.3,32.8,52,55,47,0.340,18.5,19.7,17.1,0,0.3,319,0.8,1.3,0.00004,0.00006,54.0,58.1,10,0,0,.,8.91,0.00,0.00
15min,AgWx,beryljct,423,27MAY2021:06:15:00,36.7,12.71,32.6,32.9,33.7,34.8,32.9,59,64,51,0.392,20.7,22.5,18.2,3.902,2.3,184,11,3.9,0.00018,0.00030,53.7,58.1,10,2,0,.,8.91,0.00,0.00
15min,AgWx,beryljct,423,27MAY2021:06:30:00,36.2,12.71,32.3,32.7,32.4,33.2,31.3,59,65,53,0.364,19.6,21.3,17.5,2.916,2.8,188,8.7,4.5,0.00025,0.00040,53.5,57.9,10,14,0,.,8.91,0.00,0.00
15min,AgWx,beryljct,423,27MAY2021:06:45:00,36.2,12.72,34.8,34.8,33.4,35.1,32.1,58,63,51,0.357,20.2,21.9,18.6,3.88,3.4,182,16,5.5,0.00041,0.00059,53.3,57.8,10,44,0,.,8.91,0.00,0.00
15min,AgWx,beryljct,423,27MAY2021:07:00:00,36.8,12.73,37.7,37.3,35.7,37.3,34.7,50,53,45,0.345,19.0,19.7,18.0,2.477,3.2,173,5.8,4.8,0.00057,0.00080,53.1,57.7,10,80,0,.,8.91,0.00,0.00
15min,AgWx,beryljct,423,27MAY2021:07:15:00,38.3,12.7,37.8,37.5,38.0,38.9,37.2,50,61,46,0.466,20.9,25.4,18.4,2.105,2.1,159,15,3.6,0.00066,0.00084,52.9,57.6,10,119,0,.,8.91,0.00,0.00
15min,AgWx,beryljct,423,27MAY2021:07:30:00,40.5,12.73,41.0,40.5,38.8,40.5,37.5,64,69,59,0.513,27.5,29.6,25.3,3.047,2.3,144,5.2,3.2,0.00077,0.00093,52.7,57.5,10,163,0,.,8.91,0.00,0.00
15min,AgWx,beryljct,423,27MAY2021:07:45:00,43.0,12.75,43.7,43.3,42.2,43.4,40.5,57,59,53,0.536,28.0,29.5,26.5,3.727,3.2,147,5.9,4.0,0.00108,0.00134,52.6,57.4,10,209,0,.,8.91,0.00,0.00
15min,AgWx,beryljct,423,27MAY2021:08:00:00,45.6,12.74,45.3,45.0,44.2,45.0,43.4,56,60,54,0.543,29.7,31.8,28.1,3.135,3.2,136,4.7,4.3,0.00133,0.00162,52.4,57.3,10,259,0,.,8.90,0.00,0.00
15min,AgWx,beryljct,423,27MAY2021:08:15:00,48.2,12.76,47.6,47.5,46.3,47.5,45.0,54,58,49,0.555,30.6,32.4,29.0,2.916,2.5,123,8.8,3.2,0.00158,0.00186,52.3,57.2,10,310,0,.,8.90,0.00,0.00
15min,AgWx,beryljct,423,27MAY2021:08:30:00,50.9,12.8,50.0,49.7,48.7,49.7,47.5,48,54,43,0.521,30.1,32.4,28.1,0.46,1.9,117,17,3.2,0.00190,0.00219,52.1,57.1,11,362,0,.,8.90,0.00,0.00
15min,AgWx,beryljct,423,27MAY2021:08:45:00,53.7,12.9,51.7,51.7,50.8,51.9,49.7,45,49,42,0.555,30.2,32.1,27.6,0.986,1.3,86,18,2.3,0.00220,0.00246,52.0,57.0,10,415,0,.,8.90,0.00,0.00
15min,AgWx,beryljct,423,27MAY2021:09:00:00,56.7,13.09,54.2,54.2,53.2,54.2,51.7,39,47,34,0.507,28.9,33.3,26.2,0.088,0.6,90,14,1.7,0.00251,0.00274,52.0,56.9,10,466,0,.,8.90,0.00,0.00
15min,AgWx,beryljct,423,27MAY2021:09:15:00,59.6,13.36,55.7,55.7,55.0,55.7,54.3,37,41,35,0.544,29.2,32.0,27.8,1.754,1.0,104,25,2.6,0.00288,0.00319,51.9,56.8,10,517,0,.,8.89,0.00,0.00
15min,AgWx,beryljct,423,27MAY2021:09:30:00,61.9,13.77,58.8,58.0,56.4,58.0,55.7,35,42,29,0.510,29.0,33.3,24.8,0.943,1.5,118,34,3.2,0.00325,0.00365,51.9,56.7,10,566,0,.,8.89,0.00,0.00
15min,AgWx,beryljct,423,27MAY2021:09:45:00,64.0,14.22,58.4,59.0,58.2,59.3,57.4,33,38,29,0.528,29.6,32.8,26.8,2.368,1.3,103,40,2.8,0.00359,0.00400,51.9,56.6,10,614,0,.,8.89,0.00,0.00
15min,AgWx,beryljct,423,27MAY2021:10:00:00,66.2,14.17,60.6,60.6,60.2,62.2,58.8,31,39,26,0.549,29.6,36.3,26.7,2.565,0.9,124,34,2.8,0.00393,0.00432,52.0,56.5,10,661,0,.,8.88,0.00,0.00
15min,AgWx,beryljct,423,27MAY2021:10:15:00,68.3,14.13,61.9,62.2,61.5,62.7,60.4,33,40,30,0.587,31.9,37.2,28.8,1.885,1.2,113,28,3.0,0.00427,0.00472,52.0,56.4,10,705,0,.,8.87,0.00,0.00
15min,AgWx,beryljct,423,27MAY2021:10:30:00,70.0,14.13,64.3,64.0,63.0,64.0,62.1,31,37,25,0.726,32.1,37.2,26.7,3.266,2.2,88,20,5.2,0.00468,0.00530,51.9,56.3,10,749,0,.,8.87,0.00,0.00
15min,AgWx,beryljct,423,27MAY2021:10:45:00,71.3,14.08,66.5,65.0,64.5,65.2,64.0,31,39,24,0.509,33.2,39.1,27.5,0.219,3.1,78,25,6.2,0.00503,0.00579,52.1,56.2,10,781,0,.,8.86,0.00,0.00
15min,AgWx,beryljct,423,27MAY2021:11:00:00,72.5,14.04,66.0,66.6,65.7,66.6,65.2,29,36,24,0.646,32.5,38.3,27.2,2.674,2.3,93,35,4.4,0.00531,0.00599,52.3,56.1,10,825,0,.,8.86,0.00,0.00
15min,AgWx,beryljct,423,27MAY2021:11:15:00,73.9,14.03,66.6,67.3,66.9,68.1,66.0,27,34,23,0.717,31.9,37.7,28.2,3.113,2.2,114,44,5.4,0.00558,0.00629,52.7,56.1,10,859,0,.,8.86,0.00,0.00
15min,AgWx,beryljct,423,27MAY2021:11:30:00,74.9,14.1,67.1,68.4,67.6,68.7,66.7,28,36,22,0.600,32.9,39.9,27.6,2.609,2.7,142,23,4.7,0.00586,0.00665,53.0,56.0,10,892,0,.,8.86,0.00,0.00
15min,AgWx,beryljct,423,27MAY2021:11:45:00,75.7,13.99,70.1,69.7,68.7,69.9,67.9,25,35,19,0.482,31.4,39.7,26.2,0,2.8,145,21,5.3,0.00613,0.00699,53.4,55.9,10,921,0,.,8.86,0.00,0.00
15min,AgWx,beryljct,423,27MAY2021:12:00:00,76.9,13.59,70.6,70.5,70.8,72.4,69.7,24,30,19,0.679,31.9,38.5,25.5,3.201,1.4,97,63,3.9,0.00628,0.00694,53.8,55.9,10,947,0,.,8.86,0.00,0.00
15min,AgWx,beryljct,423,27MAY2021:12:15:00,77.9,13.59,71.5,71.3,71.3,72.2,70.4,24,35,18,0.586,32.8,42.6,26.1,1.6,2.4,62,35,5.6,0.00655,0.00739,54.3,55.9,10,970,0,.,8.86,0.00,0.00
15min,AgWx,beryljct,423,27MAY2021:12:30:00,78.8,13.54,72.4,72.6,72.2,73.2,71.3,25,38,19,0.748,34.3,46.0,27.7,3.858,2.7,87,19,5.8,0.00674,0.00763,54.8,55.9,10,990,0,.,8.85,0.00,0.00
15min,AgWx,beryljct,423,27MAY2021:12:45:00,79.3,13.5,74.9,74.3,73.0,74.3,72.5,25,32,18,0.593,34.5,41.9,27.5,0.658,3.1,76,23,6.1,0.00693,0.00792,55.3,55.8,10,1005,0,.,8.86,0.00,0.00
15min,AgWx,beryljct,423,27MAY2021:13:00:00,80.3,13.46,74.2,74.7,74.7,75.5,74.1,20,29,14,0.595,30.6,40.0,22.0,3.486,2.5,60,53,6.2,0.00702,0.00793,56.1,55.8,10,1016,0,.,8.85,0.00,0.00
15min,AgWx,beryljct,423,27MAY2021:13:15:00,81.3,13.46,75.0,76.4,76.0,77.0,74.8,14,17,12,0.413,22.5,27.5,19.4,4.231,4.2,311,52,8.2,0.00734,0.00863,56.9,55.9,10,1022,0,.,8.85,0.00,0.00
15min,AgWx,beryljct,423,27MAY2021:13:30:00,81.9,13.55,75.4,76.8,76.8,77.7,76.2,13,15,12,0.410,23.1,26.3,20.8,4.275,4.7,282,32,11.6,0.00751,0.00892,57.8,55.9,10,1028,0,.,8.85,0.00,0.00
15min,AgWx,beryljct,423,27MAY2021:13:45:00,82.0,13.59,74.5,76.0,76.2,77.6,75.0,17,27,12,0.793,27.7,39.9,20.7,7.344,6.3,30,44,12.8,0.00761,0.00923,58.7,56.0,10,1024,0,.,8.85,0.00,0.00
15min,AgWx,beryljct,423,27MAY2021:14:00:00,82.2,13.47,78.1,77.8,76.7,77.9,75.4,16,29,12,0.449,26.4,41.0,21.2,6.204,5.6,342,50,8.9,0.00755,0.00908,59.6,56.0,10,1021,0,.,8.85,0.00,0.00
15min,AgWx,beryljct,423,27MAY2021:14:15:00,82.8,13.46,76.3,77.9,77.5,79.0,76.4,15,25,12,0.413,26.3,38.4,20.9,3.946,4.9,340,38,9.2,0.00755,0.00898,60.5,56.1,10,1025,0,.,8.85,0.00,0.00
15min,AgWx,beryljct,423,27MAY2021:14:30:00,83.2,13.5,74.6,75.7,77.8,79.2,75.7,15,26,12,0.503,26.5,40.2,20.9,4.165,4.3,23,75,11.6,0.00569,0.00690,61.3,56.2,10,719,0,.,8.85,0.00,0.00
15min,AgWx,beryljct,423,27MAY2021:14:45:00,82.1,13.49,77.9,78.6,76.4,78.6,74.5,15,20,12,0.410,25.6,31.4,21.5,4.757,4.0,124,69,8.1,0.00624,0.00742,62.2,56.3,10,867,0,.,8.85,0.00,0.00
15min,AgWx,beryljct,423,27MAY2021:15:00:00,82.2,13.45,77.1,77.0,77.2,78.5,76.2,20,32,12,0.523,32.0,44.0,21.0,5.217,6.7,117,46,14.3,0.00752,0.00917,63.0,56.4,10,996,0,.,8.85,0.00,0.00
15min,AgWx,beryljct,423,27MAY2021:15:15:00,82.3,13.41,76.6,77.1,78.4,80.4,76.9,15,25,10,0.548,26.7,38.7,18.9,11.36,9.2,179,28,19.5,0.00774,0.00987,63.7,56.6,10,966,0,.,8.85,0.00,0.00
15min,AgWx,beryljct,423,27MAY2021:15:30:00,82.3,13.45,81.4,80.5,78.6,80.9,76.4,15,22,11,0.432,26.7,35.8,20.8,13.94,10.5,191,33,16.6,0.00770,0.01003,64.4,56.8,9,929,0,.,8.85,0.00,0.00
15min,AgWx,beryljct,423,27MAY2021:15:45:00,82.9,13.46,78.2,78.4,79.9,81.3,78.3,12,17,10,0.522,22.5,30.0,18.5,4.538,9.2,207,34,15.7,0.00750,0.00973,65.1,56.9,10,900,0,.,8.86,0.00,0.00
15min,AgWx,beryljct,423,27MAY2021:16:00:00,83.3,13.4,81.2,80.8,79.3,81.2,77.8,14,21,10,0.413,26.1,35.0,19.6,7.804,10.9,191,33,17.8,0.00740,0.00980,65.7,57.1,10,865,0,.,8.85,0.00,0.00
15min,AgWx,beryljct,423,27MAY2021:16:15:00,83.8,13.39,80.8,81.3,80.5,81.7,79.5,12,13,10,0.488,22.3,26.5,18.7,9.97,10.2,226,26,18.4,0.00712,0.00949,66.3,57.3,10,811,0,.,8.86,0.00,0.00
15min,AgWx,beryljct,423,27MAY2021:16:30:00,84.3,13.39,81.5,80.6,80.0,81.2,78.9,13,16,9.9,0.417,23.7,29.2,18.3,8.99,9.2,181,17,15.4,0.00629,0.00844,66.8,57.6,10,719,0,.,8.85,0.00,0.00
15min,AgWx,beryljct,423,27MAY2021:16:45:00,84.7,13.37,82.0,81.2,80.8,81.7,80.0,11,13,10,0.423,22.2,26.4,19.0,13.22,9.9,220,17,15.5,0.00669,0.00900,67.2,57.8,10,753,0,.,8.86,0.00,0.00
15min,AgWx,beryljct,423,27MAY2021:17:00:00,84.8,13.4,79.5,80.8,80.7,81.8,79.6,12,13,10,0.383,22.9,26.0,19.5,12.21,9.8,187,36,19.1,0.00641,0.00869,67.5,58.1,10,712,0,.,8.86,0.00,0.00
15min,AgWx,beryljct,423,27MAY2021:17:15:00,84.9,13.42,80.0,81.1,80.4,81.1,79.7,11,13,9.9,0.390,21.0,25.4,18.5,12.34,9.7,190,27,16.4,0.00595,0.00819,67.9,58.3,10,645,0,.,8.86,0.00,0.00
15min,AgWx,beryljct,423,27MAY2021:17:30:00,84.8,13.41,81.2,80.8,80.3,80.9,79.7,11,13,9.7,0.413,21.7,24.9,18.1,9.16,8.2,228,21,12.4,0.00554,0.00750,68.3,58.5,10,625,0,.,8.86,0.00,0.00
15min,AgWx,beryljct,423,27MAY2021:17:45:00,84.6,13.39,80.0,80.0,80.1,81.0,78.9,11,13,9.3,0.358,20.4,24.7,16.2,12.28,8.3,222,47,17.4,0.00522,0.00719,68.5,58.7,10,577,0,.,8.86,0.00,0.00
15min,AgWx,beryljct,423,27MAY2021:18:00:00,84.3,13.4,79.2,79.9,80.0,80.4,79.4,10,11,9.1,0.357,19.0,21.9,16.2,12.52,10.1,187,15,16.5,0.00524,0.00750,68.7,59.0,10,529,0,.,8.86,0.00,0.00
15min,AgWx,beryljct,423,27MAY2021:18:15:00,83.8,13.41,79.5,78.9,79.5,80.1,78.8,10,12,9.2,0.393,19.1,22.5,16.1,4.801,8.4,187,29,14.2,0.00456,0.00650,68.8,59.2,10,479,0,.,8.86,0.00,0.00
15min,AgWx,beryljct,423,27MAY2021:18:30:00,83.5,13.4,78.9,79.7,79.5,80.0,78.9,11,14,9.6,0.374,20.6,25.8,17.6,8.2,8.3,194,29,13.3,0.00418,0.00604,68.9,59.5,10,429,0,.,8.86,0.00,0.00
15min,AgWx,beryljct,423,27MAY2021:18:45:00,83.0,13.29,78.6,79.1,79.0,79.7,78.4,11,12,9.4,0.360,19.6,22.8,16.8,7.892,7.5,169,21,13.6,0.00367,0.00539,68.9,59.7,10,377,0,.,8.86,0.00,0.00
15min,AgWx,beryljct,423,27MAY2021:19:00:00,82.4,13.17,78.4,78.1,78.7,79.2,78.1,11,12,9.3,0.350,18.8,22.4,16.1,8.72,9.3,177,16,13.2,0.00370,0.00571,68.9,59.9,10,326,0,.,8.86,0.00,0.00
15min,AgWx,beryljct,423,27MAY2021:19:15:00,81.7,13.13,78.5,78.0,78.4,78.9,78.0,11,12,9.1,0.350,19.2,21.7,15.1,5.02,7.7,189,16,11.3,0.00302,0.00473,68.8,60.1,10,276,0,.,8.86,0.00,0.00
15min,AgWx,beryljct,423,27MAY2021:19:30:00,81.0,13.08,77.2,77.5,77.8,78.3,77.1,11,12,9.2,0.323,18.5,21.6,15.0,9.29,9.3,188,15,14.5,0.00302,0.00495,68.7,60.3,10,227,0,.,8.86,0.00,0.00
15min,AgWx,beryljct,423,27MAY2021:19:45:00,80.1,13.05,76.7,76.7,77.0,77.5,76.2,10,12,9.5,0.314,17.3,20.3,15.4,10.3,9.2,193,18,13.7,0.00266,0.00454,68.5,60.5,10,180,0,.,8.87,0.00,0.00
15min,AgWx,beryljct,423,27MAY2021:20:00:00,79.1,13.04,76.4,75.8,76.3,76.8,75.8,10,11,9.6,0.316,16.1,17.9,14.6,10.65,10.8,195,10,14.2,0.00173,0.00222,68.3,60.7,10,136,0,.,8.87,0.00,0.00
15min,AgWx,beryljct,423,27MAY2021:20:15:00,77.8,13.05,72.8,74.0,75.3,75.9,74.0,11,12,9.5,0.355,16.3,19.3,14.3,6.116,9.0,195,6.9,11.9,0.00144,0.00191,68.0,60.9,10,94,0,.,8.87,0.00,0.00
15min,AgWx,beryljct,423,27MAY2021:20:30:00,76.2,13.03,69.8,71.1,72.5,74.0,71.1,12,13,11,0.346,17.4,19.1,15.5,6.072,6.4,205,6.9,8.8,0.00097,0.00135,67.8,61.0,10,56,0,.,8.87,0.00,0.00
15min,AgWx,beryljct,423,27MAY2021:20:45:00,73.9,13,69.4,69.1,70.0,71.0,69.0,13,14,12,0.324,17.0,18.4,16.0,7.607,6.7,216,3.8,8.0,0.00087,0.00120,67.5,61.2,10,19,0,.,8.87,0.00,0.00
15min,AgWx,beryljct,423,27MAY2021:21:00:00,71.5,12.98,69.7,69.2,68.7,69.3,67.8,14,15,13,0.316,17.0,18.4,15.4,8.2,7.0,220,7.0,9.8,0.00084,0.00116,67.2,61.3,10,4,0,.,8.87,0.00,0.00
15min,AgWx,beryljct,423,27MAY2021:21:15:00,69.7,12.97,69.0,69.0,68.6,69.4,68.0,13,14,12,0.302,16.7,18.1,15.2,9.29,7.8,234,5.6,9.6,0.00092,0.00124,66.9,61.4,10,0,0,.,8.87,0.00,0.00
15min,AgWx,beryljct,423,27MAY2021:21:30:00,68.8,12.96,68.7,68.9,68.8,69.3,68.4,13,14,12,0.295,15.5,16.7,14.4,8.22,8.4,231,4.1,10.2,0.00099,0.00132,66.5,61.5,10,0,0,.,8.87,0.00,0.00
15min,AgWx,beryljct,423,27MAY2021:21:45:00,68.2,12.97,68.9,69.5,69.2,69.8,68.7,12,13,11,0.289,14.5,15.5,13.4,9.12,9.3,233,5.7,11.6,0.00108,0.00142,66.2,61.6,10,0,0,.,8.87,0.00,0.00
15min,AgWx,beryljct,423,27MAY2021:22:00:00,68.1,12.96,67.9,68.4,69.2,69.8,68.4,12,13,11,0.310,14.8,15.9,13.5,8.42,9.4,237,6.4,11.3,0.00109,0.00144,65.8,61.7,10,0,0,.,8.87,0.00,0.00
15min,AgWx,beryljct,423,27MAY2021:22:15:00,67.7,12.95,68.8,68.6,68.4,69.0,68.1,13,13,12,0.304,15.4,16.1,14.1,9.4,9.1,236,4.6,10.9,0.00104,0.00137,65.5,61.7,10,0,0,.,8.87,0.00,0.00
15min,AgWx,beryljct,423,27MAY2021:22:30:00,67.4,12.95,67.8,67.9,68.2,68.6,67.9,13,13,12,0.307,15.5,16.2,14.8,8.51,8.9,232,4.4,11.3,0.00102,0.00134,65.2,61.8,10,0,0,.,8.88,0.00,0.00
15min,AgWx,beryljct,423,27MAY2021:22:45:00,66.2,12.94,58.0,59.4,61.4,68.1,57.9,17,21,13,0.259,15.7,19.8,11.7,5.086,6.3,183,23,9.8,0.00063,0.00087,64.8,61.8,10,0,0,.,8.88,0.00,0.00
15min,AgWx,beryljct,423,27MAY2021:23:00:00,63.8,12.92,58.0,58.3,58.5,59.2,58.0,16,17,15,0.275,12.3,13.5,11.3,6.577,6.3,176,9.0,8.2,0.00058,0.00079,64.5,61.8,10,0,0,.,8.88,0.00,0.00
15min,AgWx,beryljct,423,27MAY2021:23:15:00,62.0,12.92,56.8,57.7,58.2,58.7,57.5,16,18,16,0.276,12.7,14.3,11.9,7.826,7.1,170,6.7,9.1,0.00065,0.00086,64.2,61.9,10,0,0,.,8.88,0.00,0.00
15min,AgWx,beryljct,423,27MAY2021:23:30:00,60.6,12.92,56.8,57.4,58.0,59.0,57.1,17,20,16,0.289,13.6,15.9,11.9,7.541,7.2,173,8.8,8.8,0.00065,0.00086,63.9,61.9,11,0,0,.,8.88,0.00,0.00
15min,AgWx,beryljct,423,27MAY2021:23:45:00,59.4,12.91,56.5,57.0,57.2,57.9,56.4,19,21,18,0.305,15.4,17.2,14.0,6.423,6.3,189,5.6,7.6,0.00054,0.00074,63.5,61.9,10,0,0,.,8.88,0.00,0.00
15min,AgWx,beryljct,423,28MAY2021:00:00:00,58.4,12.89,56.7,56.3,56.8,58.4,54.7,20,26,17,0.319,16.4,20.6,13.9,5.196,5.8,178,14,7.2,0.00048,0.00067,63.2,61.8,10,0,0,.,8.88,0.00,0.00
15min,AgWx,beryljct,423,28MAY2021:00:15:00,57.3,12.9,48.5,48.8,54.2,57.2,48.0,24,34,18,0.325,17.9,22.9,14.4,6.423,6.1,170,14,7.3,0.00046,0.00063,62.9,61.8,10,0,0,.,8.88,0.00,0.00
15min,AgWx,beryljct,423,28MAY2021:00:30:00,55.5,12.88,50.6,51.3,51.2,52.8,48.9,22,28,20,0.268,13.3,16.9,11.5,7.168,6.2,165,3.6,7.5,0.00044,0.00060,62.5,61.8,10,0,0,.,8.88,0.00,0.00
15min,AgWx,beryljct,423,28MAY2021:00:45:00,54.5,12.87,50.1,53.8,53.9,56.5,51.1,19,22,17,0.292,12.6,14.5,11.5,6.094,6.6,171,6.1,7.7,0.00053,0.00070,62.2,61.8,10,0,0,.,8.88,0.00,0.00
15min,AgWx,bigpiney,439,27MAY2021:01:00:00,38.6,12.61,34.0,33.1,33.8,34.9,32.6,83,85,81,0.542,29.1,29.9,28.3,5.415,3.9,232,8.7,5.5,-0.00007,-0.00007,43.4,37.6,51,0,0,0.0,1.99,0.00,0.00
15min,AgWx,bigpiney,439,27MAY2021:01:15:00,38.0,12.6,32.1,32.6,33.2,33.7,32.6,85,86,83,0.538,29.0,29.4,28.6,1.447,3.6,243,17,6.5,-0.00008,-0.00009,43.2,37.6,51,0,0,0.0,1.99,0.00,0.00
15min,AgWx,bigpiney,439,27MAY2021:01:30:00,37.3,12.59,32.9,32.7,32.8,33.7,32.4,85,87,83,0.534,28.8,29.7,28.4,1.03,1.8,280,24,3.7,-0.00014,-0.00018,43.1,37.6,51,0,0,0.0,1.99,0.00,0.00
15min,AgWx,bigpiney,439,27MAY2021:01:45:00,36.7,12.59,32.3,31.7,31.9,32.8,31.1,86,89,85,0.533,28.3,28.8,27.7,5.239,2.9,237,24,5.5,-0.00010,-0.00012,43.0,37.5,51,0,0,0.0,1.99,0.00,0.00
15min,AgWx,bigpiney,439,27MAY2021:02:00:00,36.2,12.58,31.1,31.7,32.5,33.0,31.7,87,89,86,0.526,29.0,29.4,28.3,3.924,4.9,237,25,6.0,-0.00006,-0.00006,42.8,37.6,51,0,0,0.0,1.99,0.00,0.00
15min,AgWx,bigpiney,439,27MAY2021:02:15:00,35.9,12.56,34.1,33.7,33.4,34.7,31.5,85,88,81,0.551,29.2,30.1,28.1,1.929,3.2,313,17,6.4,-0.00009,-0.00011,42.7,37.5,51,0,0,0.0,1.99,0.00,0.00
15min,AgWx,bigpiney,439,27MAY2021:02:30:00,35.7,12.55,34.5,34.4,34.7,35.7,33.7,81,84,78,0.543,29.5,30.0,28.5,2.762,2.3,267,19,3.5,-0.00012,-0.00014,42.6,37.6,51,0,0,0.0,1.99,0.00,0.00
15min,AgWx,bigpiney,439,27MAY2021:02:45:00,35.6,12.55,35.5,35.1,33.9,35.1,32.7,83,85,81,0.556,29.1,30.0,27.9,4.516,3.8,242,12,5.3,-0.00007,-0.00008,42.4,37.6,51,0,0,0.0,1.99,0.00,0.00
15min,AgWx,bigpiney,439,27MAY2021:03:00:00,35.4,12.54,34.2,34.0,33.6,35.2,32.4,82,86,79,0.536,28.7,29.8,28.1,2.214,1.8,234,26,4.8,-0.00014,-0.00018,42.3,37.6,51,0,0,0.0,1.99,0.00,0.00
15min,AgWx,bigpiney,439,27MAY2021:03:15:00,35.2,12.53,33.7,33.3,33.3,34.0,32.9,83,84,81,0.531,28.5,28.9,28.3,3.771,2.4,199,11,4.0,-0.00011,-0.00014,42.2,37.6,51,0,0,0.0,1.99,0.00,0.00
15min,AgWx,bigpiney,439,27MAY2021:03:30:00,34.9,12.52,33.3,33.2,32.4,33.5,31.2,84,87,81,0.539,28.2,29.2,27.1,4.516,3.4,220,51,5.8,-0.00008,-0.00009,42.0,37.5,51,0,0,0.0,1.99,0.00,0.00
15min,AgWx,bigpiney,439,27MAY2021:03:45:00,34.8,12.49,31.1,30.6,32.1,33.3,30.5,85,88,83,0.508,28.0,28.8,27.1,6.774,3.8,223,13,6.8,-0.00007,-0.00008,41.9,37.5,51,0,0,0.0,1.99,0.00,0.00
15min,AgWx,bigpiney,439,27MAY2021:04:00:00,34.5,12.49,32.0,31.8,30.9,31.8,30.5,88,88,86,0.520,27.7,28.2,27.3,3.398,5.4,245,23,6.6,-0.00005,-0.00005,41.8,37.5,51,0,0,0.0,1.99,0.00,0.00
15min,AgWx,bigpiney,439,27MAY2021:04:15:00,34.2,12.48,31.1,30.7,30.6,31.8,30.0,87,89,84,0.512,27.2,28.0,26.4,1.118,2.3,218,50,6.8,-0.00012,-0.00015,41.6,37.5,51,0,0,0.0,1.99,0.00,0.00
15min,AgWx,bigpiney,439,27MAY2021:04:30:00,33.8,12.47,30.0,30.4,30.6,31.2,29.8,88,89,87,0.502,27.4,27.9,26.5,4.516,3.3,220,17,4.9,-0.00009,-0.00011,41.5,37.5,51,0,0,0.0,1.99,0.00,0.00
15min,AgWx,bigpiney,439,27MAY2021:04:45:00,33.5,12.46,32.1,31.6,31.3,32.5,29.8,86,90,83,0.516,27.7,28.7,26.7,4.647,4.2,261,20,5.3,-0.00007,-0.00007,41.3,37.5,51,0,0,0.0,1.99,0.00,0.00
15min,AgWx,bigpiney,439,27MAY2021:05:00:00,33.1,12.44,30.8,31.0,30.9,31.8,30.4,87,89,85,0.515,27.6,28.2,26.9,2.368,3.3,314,10,4.9,-0.00009,-0.00010,41.2,37.5,51,0,0,0.0,1.99,0.00,0.00
15min,AgWx,bigpiney,439,27MAY2021:05:15:00,32.8,12.43,30.1,29.9,30.6,31.5,29.9,88,90,85,0.479,27.4,28.3,26.0,2.17,1.5,220,48,2.8,-0.00015,-0.00020,41.1,37.5,51,0,0,0.0,1.99,0.00,0.00
15min,AgWx,bigpiney,439,27MAY2021:05:30:00,32.5,12.42,29.8,29.4,29.6,30.2,29.0,89,91,86,0.490,26.6,27.6,25.8,0,0.7,189,23,2.3,-0.00018,-0.00026,40.9,37.4,51,0,0,0.0,1.99,0.00,0.00
15min,AgWx,bigpiney,439,27MAY2021:05:45:00,32.1,12.42,28.4,28.3,29.4,29.8,28.3,89,90,88,0.468,26.6,27.1,25.5,1.578,1.5,208,8.0,4.2,-0.00014,-0.00019,40.8,37.4,51,2,0,0.0,1.99,0.00,0.00
15min,AgWx,bigpiney,439,27MAY2021:06:00:00,31.7,12.42,29.3,28.9,28.5,28.9,28.2,90,90,89,0.482,25.9,26.3,25.5,4.604,2.1,223,7.7,4.7,-0.00011,-0.00014,40.7,37.4,51,9,0,0.0,1.99,0.00,0.00
15min,AgWx,bigpiney,439,27MAY2021:06:15:00,31.6,12.43,30.5,30.1,29.6,30.2,29.0,89,90,87,0.495,26.7,27.1,26.3,1.951,2.1,247,12,4.9,-0.00021,-0.00020,40.6,37.3,51,34,0,0.0,1.99,0.00,0.00
15min,AgWx,bigpiney,439,27MAY2021:06:30:00,31.9,12.45,30.5,30.3,30.6,31.0,30.1,87,88,86,0.503,27.3,27.5,26.8,2.324,1.0,200,17,2.3,-0.00013,-0.00013,40.4,37.3,51,61,0,0.0,1.99,0.00,0.00
15min,AgWx,bigpiney,439,27MAY2021:06:45:00,32.5,12.48,31.6,31.3,30.7,31.3,30.2,90,90,88,0.531,28.0,28.6,27.2,0.702,1.4,265,34,2.3,0.00001,0.00003,40.3,37.3,51,95,0,0.0,1.99,0.00,0.00
15min,AgWx,bigpiney,439,27MAY2021:07:00:00,33.7,12.54,32.3,31.9,31.6,31.9,31.3,90,91,89,0.540,29.0,29.4,28.5,0.658,0.5,341,15,1.8,0.00018,0.00020,40.2,37.3,51,137,0,0.0,1.99,0.00,0.00
15min,AgWx,bigpiney,439,27MAY2021:07:15:00,35.2,12.59,33.8,33.2,32.4,33.2,31.9,89,90,88,0.575,29.6,30.5,28.9,1.425,1.2,336,17,2.0,0.00037,0.00041,40.1,37.2,51,178,0,0.0,1.99,0.00,0.00
15min,AgWx,bigpiney,439,27MAY2021:07:30:00,36.9,12.69,37.0,35.9,34.6,35.9,33.3,86,90,83,0.591,31.0,31.7,30.3,0.592,0.9,41,15,1.6,0.00066,0.00071,39.9,37.2,51,235,0,0.0,1.99,0.00,0.00
15min,AgWx,bigpiney,439,27MAY2021:07:45:00,38.9,12.76,37.5,37.6,36.7,37.8,36.0,83,85,82,0.629,32.1,33.7,31.3,0,1.3,22,21,2.8,0.00087,0.00095,39.8,37.2,51,273,0,0.0,1.99,0.00,0.00
15min,AgWx,bigpiney,439,27MAY2021:08:00:00,40.7,12.78,39.4,39.0,38.3,39.1,37.6,81,83,79,0.636,33.1,34.0,32.3,1.82,1.8,58,19,3.2,0.00115,0.00127,39.7,37.1,51,328,0,0.0,1.99,0.00,0.00
15min,AgWx,bigpiney,439,27MAY2021:08:15:00,42.5,12.81,39.6,39.8,39.6,40.0,39.0,77,79,75,0.646,33.1,34.1,32.1,4.077,3.0,72,22,4.6,0.00135,0.00152,39.6,37.1,51,361,0,0.0,1.99,0.00,0.00
15min,AgWx,bigpiney,439,27MAY2021:08:30:00,43.9,13.06,40.9,41.2,40.6,41.5,39.8,77,80,74,0.684,33.9,35.2,32.7,5.371,3.2,82,24,5.4,0.00166,0.00186,39.5,37.0,51,425,0,0.0,1.99,0.00,0.00
15min,AgWx,bigpiney,439,27MAY2021:08:45:00,45.1,13.34,42.6,42.5,42.1,42.8,41.2,76,79,74,0.686,35.2,36.8,34.3,4.669,4.4,83,17,7.3,0.00185,0.00209,39.4,37.1,51,457,0,0.0,1.99,0.00,0.00
15min,AgWx,bigpiney,439,27MAY2021:09:00:00,46.2,13.64,44.6,44.3,43.5,44.5,42.5,72,75,68,0.693,35.1,36.2,33.7,3.858,4.3,79,17,6.8,0.00216,0.00245,39.3,37.0,51,506,0,0.0,1.99,0.00,0.00